[[{"header":{"parameterUnit":"m.s-1","parameterCategory":2,"la1":30.2991,"la2":30.254,"lo1":-89.0895,"lo2":-89.0444,"dy":0.0017,"dx":0.0017,"nx":28,"ny":28,"refTime":"2024-04-11T09:00:00:Z","depth":"0","parameterNumber":2,"parameterNumberName":"U-component_of_CURRENTS"},"data":[0,0,0,0,0,0,0,0,0,0,0,0,0,0,0,0,0,0,0,0,0,0,0,0,0,0,0,0,0,0,0,0,0,0,0,0,0,0,0,0,0,0,0,0,0,0,0,0,0,0,0,0,0,0,0,0,0,0,0.2955,0.2957,0,0.3044,0.3045,0.3045,0.3057,0.3057,0.3056,0.3056,0.3113,0.3115,0.3116,0,0,0,0,0,0,0,0,0,0,0,0,0,0.2795,0.2797,0.2955,0.2957,0.2959,0.3044,0.3045,0.3045,0.3057,0.3057,0.3056,0.3056,0.3113,0.3114,0.3116,0,0,0,0,0,0,0,0,0,0,0,0,0,0.2865,0.2798,0.2955,0.298,0.2984,0.3044,0.3045,0.3045,0.3057,0.3057,0.3056,0.3056,0.3112,0.3114,0.3117,0.3136,0,0,0.3124,0.3125,0,0,0,0,0,0,0,0,0.2861,0.287,0.2975,0.2979,0.2983,0.3046,0.301,0.3077,0.3057,0.3021,0.3056,0.3056,0.3093,0.3097,0.3103,0.3139,0.3141,0.3124,0.3126,0.3127,0.3128,0,0,0,0,0,0,0,0.2856,0.2866,0.2982,0.2977,0.2982,0.2988,0.2997,0.3022,0.305,0.3024,0.3027,0.3049,0.3094,0.3101,0.3105,0.3142,0.3124,0.3127,0.3128,0.3129,0.3203,0.3203,0,0,0,0,0,0,0.2861,0.2862,0.298,0.2986,0.2929,0.2992,0.3001,0.302,0.3051,0.3058,0.305,0.305,0.3097,0.3102,0.3107,0.318,0.3127,0.3129,0.3131,0.3202,0.3203,0.3203,0,0,0,0,0,0,0.2857,0.2871,0.2976,0.2932,0.2947,0.2996,0.3016,0.3022,0.3028,0.3072,0.3077,0.305,0.3097,0.3104,0.3127,0.318,0.313,0.3133,0.3202,0.3202,0.3203,0.3295,0,0,0,0,0,0,0.2852,0.2869,0.2875,0.2932,0.295,0.3018,0.3017,0.3024,0.3046,0.3047,0.3075,0.308,0.3097,0.3123,0.3129,0.3183,0.3135,0.3201,0.3202,0.3203,0.3292,0.3299,0.3306,0,0,0,0,0,0.2846,0.2866,0.2874,0.2889,0.296,0.302,0.3028,0.3057,0.3046,0.3057,0.3067,0.3079,0.3133,0.3125,0.3132,0.3189,0.3201,0.3202,0.3203,0.3289,0.3298,0.3305,0,0,0,0,0,0,0.2802,0.2871,0.2882,0.2921,0.2968,0.3025,0.3044,0.3053,0.3069,0.3067,0.3084,0.3091,0.3138,0.3132,0.3122,0.3206,0.3169,0.3172,0.3232,0.3241,0.3248,0.3251,0.3137,0,0,0,0,0,0.2796,0.2826,0.2891,0.2922,0.2947,0.2988,0.3012,0.3035,0.3066,0.3071,0.3096,0.3115,0.3149,0.3166,0.3192,0.3232,0.3235,0.3268,0.3275,0.3282,0.3285,0.3318,0.333,0.3207,0.3207,0.3207,0,0,0.2788,0.2832,0.2847,0.2914,0.295,0.301,0.3,0.3047,0.3096,0.3076,0.3134,0.3144,0.3161,0.3218,0.3238,0.3221,0.3321,0.3283,0.3289,0.3289,0.3321,0.3333,0.3344,0.3207,0.3207,0.3207,0,0,0.281,0.2826,0.2868,0.2912,0.2981,0.3017,0.3029,0.309,0.3111,0.3162,0.3168,0.3197,0.3243,0.3277,0.3296,0.3347,0.3357,0.3355,0.3402,0.3435,0.3446,0.3456,0.3497,0.351,0.3359,0.3359,0.3359,0,0.2795,0.2867,0.2888,0.2949,0.2996,0.3022,0.3086,0.312,0.318,0.3199,0.319,0.3257,0.3279,0.3347,0.3374,0.3371,0.3384,0.3379,0.3448,0.3457,0.3465,0.3505,0.3518,0.3364,0.3363,0.3363,0.3363,0,0.2871,0.2919,0.295,0.3038,0.3079,0.314,0.3199,0.3233,0.3255,0.3287,0.3343,0.3363,0.3397,0.342,0.3421,0.3496,0.3486,0.3457,0.3435,0.3484,0.3522,0.3534,0.3371,0.3369,0.3367,0.3366,0,0,0.2878,0.2981,0.2999,0.3038,0.3134,0.3175,0.3252,0.3327,0.3359,0.3407,0.345,0.3518,0.3505,0.3522,0.3528,0.3562,0.3651,0.354,0.354,0.3597,0.3735,0.3843,0.3866,0.3635,0.3637,0.3639,0.3746,0,0.294,0.3054,0.3098,0.3197,0.3255,0.3294,0.3356,0.3412,0.3447,0.349,0.3514,0.3554,0.3552,0.3563,0.3605,0.3621,0.3681,0.3625,0.3664,0.3666,0.3769,0.3883,0.3738,0.3831,0.3758,0.3759,0.3761,0,0.3024,0.3085,0.3188,0.3263,0.3291,0.3341,0.3418,0.3476,0.3533,0.3555,0.3592,0.3601,0.3663,0.3641,0.3728,0.3689,0.3733,0.375,0.3754,0.3829,0.3797,0.3763,0.3855,0.376,0.3779,0.3777,0.3776,0,0.3036,0.3151,0.3226,0.3261,0.335,0.338,0.3421,0.3484,0.3524,0.3581,0.3612,0.3663,0.3703,0.374,0.3821,0.3762,0.3926,0.3837,0.3986,0.3993,0.3865,0.386,0.3881,0.393,0.393,0.3929,0.3929,0,0.3099,0.3159,0.3223,0.3264,0.3319,0.3373,0.3426,0.347,0.353,0.3586,0.363,0.3702,0.3733,0.3834,0.3859,0.4002,0.3968,0.4035,0.4046,0.3897,0.3893,0.38,0.3742,0.3933,0.3932,0.3932,0.3931,0,0.3109,0.3168,0.3233,0.3306,0.3323,0.3351,0.3415,0.3446,0.3517,0.3592,0.3615,0.3744,0.3889,0.3968,0.4066,0.4089,0.4082,0.4247,0.4095,0.4089,0.4095,0.4047,0.3948,0.3829,0.437,0.4373,0.4377,0,0.313,0.3167,0.3233,0.3245,0.3272,0.3317,0.3341,0.3419,0.3453,0.3635,0.3666,0.3861,0.4001,0.4223,0.4306,0.4415,0.4249,0.4347,0.4218,0.4133,0.4083,0.3883,0.3772,0.4069,0.4069,0.4069,0.4069,0,0.3142,0.3157,0.3194,0.3219,0.3238,0.3264,0.3304,0.3336,0.3449,0.3551,0.3721,0.3859,0.4144,0.4228,0.4439,0.4466,0.4136,0.4361,0.4272,0.3888,0.3662,0.354,0.3972,0.4071,0.4071,0.4071,0.4071,0.4071,0.3123,0.3135,0.3164,0.3177,0.3194,0.319,0.3187,0.326,0.3342,0.3465,0.367,0.384,0.4064,0.4345,0.4362,0.4322,0.4251,0.4172,0.4134,0.3949,0.3799,0.4296,0.4422,0.4424,0.4425,0.4426,0.4428,0,0.3091,0.3105,0.3118,0.3116,0.3096,0.3126,0.3146,0.3126,0.32,0.3378,0.353,0.3772,0.3907,0.4042,0.4161,0.4079,0.3807,0.397,0.3574,0.3484,0.3925,0.388,0.3895,0.3895,0.3895,0.3895,0.3895,0.3895,0.3072,0.3066,0.3069,0.3014,0.3007,0.2937,0.2929,0.2934,0.3013,0.3144,0.3282,0.3446,0.3756,0.3958,0.3919,0.3822,0.3492,0.3396,0.3369,0.3626,0.3636,0.3646,0.3589,0.3543,0.3542,0.2728,0.2722,0.2717]},{"header":{"parameterUnit":"m.s-1","parameterCategory":2,"la1":30.2991,"la2":30.254,"lo1":-89.0895,"lo2":-89.0444,"dy":0.0017,"dx":0.0017,"nx":28,"ny":28,"refTime":"2024-04-11T09:00:00:Z","depth":"0","parameterNumber":3,"parameterNumberName":"V-component_of_CURRENTS"},"data":[0,0,0,0,0,0,0,0,0,0,0,0,0,0,0,0,0,0,0,0,0,0,0,0,0,0,0,0,0,0,0,0,0,0,0,0,0,0,0,0,0,0,0,0,0,0,0,0,0,0,0,0,0,0,0,0,0,0,-0.061,-0.0611,0,-0.0716,-0.0717,-0.0719,-0.0815,-0.0816,-0.0817,-0.0818,-0.1034,-0.1038,-0.1043,0,0,0,0,0,0,0,0,0,0,0,0,0,-0.0537,-0.0538,-0.061,-0.0611,-0.0612,-0.0716,-0.0717,-0.0719,-0.0815,-0.0816,-0.0818,-0.0819,-0.1032,-0.1038,-0.1044,0,0,0,0,0,0,0,0,0,0,0,0,0,-0.06,-0.0538,-0.061,-0.0671,-0.0678,-0.0716,-0.0718,-0.072,-0.0815,-0.0816,-0.0818,-0.0819,-0.103,-0.1037,-0.1044,-0.106,0,0,-0.1066,-0.107,0,0,0,0,0,0,0,0,-0.0597,-0.0603,-0.0661,-0.0667,-0.0674,-0.0752,-0.0771,-0.0838,-0.0815,-0.0765,-0.0818,-0.082,-0.0947,-0.0961,-0.0979,-0.107,-0.1079,-0.1067,-0.1071,-0.1075,-0.1077,0,0,0,0,0,0,0,-0.0592,-0.0599,-0.0654,-0.0662,-0.067,-0.0709,-0.072,-0.0784,-0.085,-0.0769,-0.0776,-0.0784,-0.0952,-0.0972,-0.0985,-0.1082,-0.1067,-0.1073,-0.1078,-0.1081,-0.1249,-0.1249,0,0,0,0,0,0,-0.0571,-0.0595,-0.0651,-0.0657,-0.0636,-0.0709,-0.0721,-0.0727,-0.0847,-0.0866,-0.0783,-0.0788,-0.0959,-0.0977,-0.0994,-0.1104,-0.1074,-0.1081,-0.1085,-0.1248,-0.1249,-0.1249,0,0,0,0,0,0,-0.0569,-0.0575,-0.0646,-0.0627,-0.0639,-0.0708,-0.0715,-0.0729,-0.0749,-0.0856,-0.0877,-0.0789,-0.0961,-0.0983,-0.1061,-0.111,-0.1085,-0.1091,-0.1248,-0.1249,-0.1249,-0.1271,0,0,0,0,0,0,-0.0566,-0.0573,-0.0563,-0.0625,-0.0639,-0.0668,-0.0714,-0.073,-0.075,-0.0759,-0.0868,-0.0889,-0.0964,-0.1049,-0.1068,-0.112,-0.1097,-0.1248,-0.1248,-0.1249,-0.127,-0.1272,-0.1274,0,0,0,0,0,-0.0563,-0.0543,-0.0562,-0.0569,-0.0625,-0.0668,-0.0679,-0.0735,-0.0749,-0.0757,-0.0835,-0.0886,-0.1064,-0.1055,-0.1077,-0.1132,-0.1248,-0.1248,-0.1249,-0.1269,-0.1272,-0.1274,0,0,0,0,0,0,-0.0499,-0.0553,-0.0575,-0.057,-0.0615,-0.0684,-0.0688,-0.072,-0.0783,-0.0794,-0.089,-0.0918,-0.1008,-0.1044,-0.1032,-0.1174,-0.1163,-0.1168,-0.1171,-0.1174,-0.1176,-0.114,-0.1103,0,0,0,0,0,-0.0479,-0.0485,-0.0543,-0.0539,-0.0556,-0.0616,-0.0635,-0.0676,-0.074,-0.0767,-0.0853,-0.0936,-0.1023,-0.1075,-0.1149,-0.1221,-0.1208,-0.1265,-0.1267,-0.1268,-0.125,-0.1268,-0.1269,-0.125,-0.125,-0.125,0,0,-0.0453,-0.048,-0.0485,-0.0526,-0.0563,-0.0619,-0.0633,-0.066,-0.0721,-0.0782,-0.0884,-0.0945,-0.1038,-0.1137,-0.1179,-0.1178,-0.1263,-0.1268,-0.127,-0.125,-0.1268,-0.127,-0.1272,-0.125,-0.125,-0.125,0,0,-0.0435,-0.0429,-0.0451,-0.0488,-0.054,-0.0588,-0.0591,-0.0666,-0.071,-0.0797,-0.0867,-0.0936,-0.1071,-0.1152,-0.1209,-0.1248,-0.1267,-0.128,-0.1278,-0.1297,-0.1298,-0.13,-0.1268,-0.1267,-0.1287,-0.1287,-0.1287,0,-0.0407,-0.0446,-0.046,-0.0505,-0.0537,-0.0578,-0.0627,-0.0682,-0.0779,-0.081,-0.0833,-0.1001,-0.1083,-0.1197,-0.1226,-0.1258,-0.1246,-0.1274,-0.1299,-0.1301,-0.1302,-0.1269,-0.1267,-0.1288,-0.1288,-0.1288,-0.1288,0,-0.0444,-0.0467,-0.0475,-0.056,-0.0589,-0.0623,-0.0702,-0.0743,-0.0793,-0.0854,-0.0946,-0.1039,-0.1126,-0.118,-0.1231,-0.1292,-0.1271,-0.1297,-0.1296,-0.1305,-0.127,-0.1267,-0.129,-0.129,-0.1289,-0.1289,0,0,-0.0414,-0.0491,-0.0502,-0.0531,-0.0617,-0.0641,-0.0726,-0.0805,-0.083,-0.0934,-0.0972,-0.1132,-0.1135,-0.1193,-0.1254,-0.1286,-0.1295,-0.1295,-0.1295,-0.1263,-0.1294,-0.1205,-0.1193,-0.1331,-0.1331,-0.1332,-0.126,0,-0.045,-0.0533,-0.0567,-0.0636,-0.0676,-0.0717,-0.0779,-0.0844,-0.0896,-0.094,-0.1022,-0.1081,-0.1158,-0.1172,-0.1228,-0.1266,-0.1291,-0.1308,-0.1288,-0.1286,-0.1208,-0.119,-0.1112,-0.1035,-0.1257,-0.1257,-0.1257,0,-0.0499,-0.054,-0.0615,-0.0651,-0.0668,-0.0713,-0.0761,-0.0817,-0.0883,-0.0909,-0.0971,-0.1014,-0.1084,-0.1126,-0.1205,-0.121,-0.1249,-0.128,-0.1279,-0.1182,-0.1192,-0.1065,-0.1022,-0.1261,-0.1253,-0.1253,-0.1253,0,-0.0484,-0.0565,-0.0615,-0.064,-0.0703,-0.0717,-0.0747,-0.0805,-0.0793,-0.0859,-0.0819,-0.0945,-0.093,-0.1036,-0.11,-0.1151,-0.1141,-0.1221,-0.1178,-0.117,-0.1089,-0.1073,-0.1271,-0.1266,-0.1266,-0.1267,-0.1267,0,-0.0509,-0.0539,-0.0602,-0.0623,-0.0623,-0.0681,-0.0665,-0.0705,-0.0705,-0.0627,-0.0771,-0.0697,-0.0901,-0.0919,-0.1041,-0.106,-0.1093,-0.1148,-0.1146,-0.109,-0.1077,-0.1267,-0.1388,-0.1264,-0.1264,-0.1265,-0.1265,0,-0.0478,-0.054,-0.0561,-0.0612,-0.0609,-0.0601,-0.0559,-0.052,-0.0548,-0.0434,-0.0425,-0.0481,-0.0487,-0.0662,-0.078,-0.0915,-0.1074,-0.0998,-0.0888,-0.0875,-0.1081,-0.1202,-0.1301,-0.1389,-0.0951,-0.0948,-0.0946,0,-0.0477,-0.0493,-0.0512,-0.0472,-0.048,-0.0461,-0.0405,-0.0433,-0.0345,-0.0251,-0.0148,-0.0149,-0.0056,-0.0213,-0.0471,-0.0648,-0.0906,-0.0737,-0.0845,-0.1057,-0.1193,-0.1303,-0.1381,-0.0741,-0.0738,-0.0735,-0.0732,0,-0.0425,-0.0427,-0.0424,-0.0344,-0.0284,-0.0209,-0.0126,-0.0032,0.0014,0.0161,0.0382,0.0463,0.0308,0.0168,-0.0144,-0.0306,-0.0872,-0.0677,-0.0949,-0.1071,-0.1149,-0.1243,-0.0806,-0.0705,-0.0708,-0.071,-0.0711,-0.0712,-0.0342,-0.0303,-0.0263,-0.0178,-0.0086,0.0075,0.0196,0.0349,0.0569,0.0852,0.0848,0.1069,0.0706,0.0317,0.0011,-0.0568,-0.0627,-0.0773,-0.0902,-0.0995,-0.1091,-0.0557,-0.0432,-0.0433,-0.0434,-0.0434,-0.0435,0,-0.021,-0.016,-0.0078,0.0057,0.0219,0.0214,0.0431,0.0609,0.0962,0.1225,0.1474,0.148,0.1047,0.0472,-0.0305,-0.0748,-0.0967,-0.102,-0.1225,-0.1299,-0.086,-0.0868,-0.0767,-0.0767,-0.0767,-0.0767,-0.0766,-0.0766,-0.0123,-0.0008,0.0029,0.0315,0.0432,0.0677,0.0823,0.111,0.1342,0.1766,0.1957,0.2038,0.1584,0.0131,-0.0922,-0.1165,-0.1539,-0.154,-0.1781,-0.1568,-0.1559,-0.1551,-0.1595,-0.1647,-0.1648,-0.2173,-0.2178,-0.2182]}],[{"header":{"parameterUnit":"m.s-1","parameterCategory":2,"la1":30.2991,"la2":30.254,"lo1":-89.0895,"lo2":-89.0444,"dy":0.0017,"dx":0.0017,"nx":28,"ny":28,"refTime":"2024-04-11T09:00:00:Z","depth":"2","parameterNumber":2,"parameterNumberName":"U-component_of_CURRENTS"},"data":[0,0,0,0,0,0,0,0,0,0,0,0,0,0,0,0,0,0,0,0,0,0,0,0,0,0,0,0,0,0,0,0,0,0,0,0,0,0,0,0,0,0,0,0,0,0,0,0,0,0,0,0,0,0,0,0,0,0,0.2334,0.2336,0,0.2443,0.2444,0.2444,0.2462,0.2462,0.2461,0.2461,0.2505,0.2507,0.2509,0,0,0,0,0,0,0,0,0,0,0,0,0,0.2201,0.2203,0.2334,0.2336,0.2338,0.2443,0.2444,0.2445,0.2462,0.2462,0.2461,0.246,0.2505,0.2507,0.2509,0,0,0,0,0,0,0,0,0,0,0,0,0,0.2275,0.2203,0.2334,0.2363,0.2367,0.2442,0.2444,0.2445,0.2462,0.2462,0.2461,0.246,0.2504,0.2507,0.2509,0.254,0,0,0.2517,0.2518,0,0,0,0,0,0,0,0,0.227,0.2279,0.2357,0.2361,0.2365,0.2442,0.2414,0.2475,0.2463,0.2421,0.2461,0.246,0.2482,0.2486,0.2502,0.2542,0.2544,0.2517,0.2518,0.2519,0.252,0,0,0,0,0,0,0,0.2265,0.2275,0.2372,0.2359,0.2364,0.2391,0.2399,0.2426,0.2449,0.2424,0.2427,0.2447,0.2483,0.25,0.2504,0.2544,0.2517,0.2519,0.2521,0.2522,0.2613,0.2614,0,0,0,0,0,0,0.226,0.227,0.2369,0.2376,0.2321,0.2394,0.2403,0.2414,0.2451,0.2457,0.2448,0.2448,0.2496,0.2501,0.2505,0.2571,0.2519,0.2522,0.2523,0.2612,0.2613,0.2615,0,0,0,0,0,0,0.2256,0.2267,0.2364,0.2329,0.2344,0.2397,0.241,0.2417,0.2438,0.247,0.2474,0.2461,0.2496,0.2502,0.2527,0.2572,0.2523,0.2525,0.2611,0.2613,0.2614,0.2685,0,0,0,0,0,0,0.2252,0.2265,0.2276,0.2329,0.2346,0.2395,0.2411,0.242,0.2454,0.2454,0.2483,0.2487,0.2496,0.2523,0.2529,0.2574,0.2527,0.261,0.2612,0.2614,0.2682,0.2689,0.2695,0,0,0,0,0,0.2246,0.2265,0.2275,0.2288,0.2358,0.2396,0.2406,0.2438,0.2455,0.2455,0.2482,0.2486,0.2539,0.2526,0.2533,0.258,0.2609,0.2611,0.2613,0.2679,0.2687,0.2695,0,0,0,0,0,0,0.2213,0.2271,0.2283,0.2317,0.2347,0.24,0.2427,0.2443,0.2469,0.2477,0.2497,0.2502,0.2541,0.2543,0.2529,0.2608,0.2576,0.2579,0.2623,0.2631,0.2638,0.2697,0.2529,0,0,0,0,0,0.2212,0.2236,0.2287,0.2309,0.2335,0.2381,0.2406,0.2423,0.2456,0.2468,0.2497,0.2527,0.2557,0.2578,0.2595,0.2642,0.266,0.2675,0.2682,0.2688,0.2739,0.2754,0.2767,0.2621,0.2621,0.2621,0,0,0.2206,0.2241,0.2255,0.2304,0.2342,0.239,0.2393,0.2431,0.248,0.2469,0.2544,0.2547,0.257,0.262,0.2639,0.263,0.2741,0.269,0.2696,0.2745,0.2758,0.2772,0.2785,0.2623,0.2623,0.2622,0,0,0.2218,0.2241,0.2275,0.2312,0.2369,0.2394,0.2404,0.2463,0.2497,0.2557,0.2564,0.2603,0.265,0.2686,0.2709,0.2766,0.2767,0.2754,0.2854,0.2866,0.2879,0.2891,0.2946,0.2962,0.2768,0.2768,0.2768,0,0.2215,0.2267,0.2287,0.2343,0.2389,0.2399,0.2456,0.2496,0.2552,0.2599,0.2587,0.2693,0.2701,0.2789,0.2813,0.279,0.2798,0.2822,0.2878,0.2889,0.29,0.2954,0.2971,0.2772,0.2771,0.2771,0.2771,0,0.2277,0.2316,0.2344,0.2417,0.2453,0.2499,0.2559,0.2599,0.2642,0.2692,0.2784,0.2806,0.2874,0.2874,0.2874,0.2958,0.2941,0.2874,0.2862,0.2919,0.2972,0.2988,0.2777,0.2776,0.2775,0.2774,0,0,0.2304,0.237,0.2395,0.243,0.2503,0.254,0.2622,0.2706,0.2775,0.284,0.2929,0.3017,0.303,0.3058,0.3049,0.3082,0.3164,0.3025,0.3023,0.3092,0.3222,0.3171,0.3183,0.3085,0.3088,0.309,0.3234,0,0.2359,0.2446,0.2481,0.2569,0.2615,0.266,0.2726,0.28,0.2868,0.2942,0.3008,0.3072,0.3097,0.3112,0.3164,0.3141,0.3208,0.3135,0.3149,0.3152,0.3106,0.32,0.2964,0.3068,0.325,0.3252,0.3254,0,0.2437,0.2481,0.256,0.2631,0.2664,0.2708,0.2822,0.2886,0.2986,0.3046,0.3149,0.3168,0.3273,0.3228,0.3346,0.3288,0.3298,0.3289,0.3291,0.3241,0.313,0.3036,0.309,0.3281,0.3279,0.3277,0.3275,0,0.2445,0.255,0.2601,0.2637,0.2712,0.2761,0.2807,0.2913,0.2981,0.3095,0.3147,0.3269,0.3312,0.3359,0.341,0.336,0.3496,0.3402,0.3396,0.3392,0.3202,0.3177,0.3498,0.3498,0.3497,0.3497,0.3496,0,0.2484,0.2538,0.2602,0.2635,0.2707,0.2761,0.2849,0.2927,0.3014,0.3094,0.3188,0.3277,0.3339,0.3419,0.3444,0.351,0.3544,0.3472,0.3436,0.322,0.3196,0.3374,0.3358,0.3502,0.3501,0.35,0.3499,0,0.2453,0.2506,0.2562,0.2653,0.2695,0.2734,0.2844,0.2901,0.3005,0.3099,0.3129,0.3289,0.3419,0.3498,0.3571,0.3555,0.3595,0.3604,0.3383,0.3319,0.3479,0.3465,0.3612,0.3612,0.3611,0.3611,0.3611,0,0.2433,0.2454,0.2557,0.2598,0.2633,0.2712,0.276,0.2876,0.2932,0.3122,0.3147,0.3315,0.3416,0.3557,0.3575,0.3638,0.3661,0.3414,0.3281,0.3546,0.3497,0.3482,0.3469,0.3066,0.3062,0.3058,0.3055,0,0.2396,0.2427,0.2488,0.2551,0.261,0.2661,0.2735,0.2777,0.2908,0.2995,0.3117,0.3204,0.3387,0.3354,0.3447,0.3438,0.3377,0.3337,0.3668,0.3067,0.304,0.2988,0.2991,0.3021,0.3024,0.3027,0.3028,0.303,0.238,0.2408,0.2482,0.2533,0.2574,0.2577,0.2606,0.2679,0.2745,0.2832,0.298,0.3039,0.3117,0.3154,0.3099,0.3072,0.3284,0.3111,0.3119,0.3132,0.3036,0.3009,0.297,0.2972,0.2975,0.2977,0.2979,0,0.2396,0.2437,0.2467,0.2505,0.2463,0.2524,0.2571,0.2555,0.2592,0.268,0.2749,0.259,0.2628,0.2719,0.2643,0.265,0.2578,0.2527,0.2407,0.2447,0.2481,0.2345,0.2099,0.2096,0.2092,0.2089,0,0,0.2417,0.2457,0.2455,0.2383,0.2388,0.2331,0.2339,0.2337,0.2368,0.2312,0.2319,0.2523,0.2654,0.2333,0.2316,0.2192,0.2281,0.211,0.2834,0.2735,0.2763,0.286,0.2703,0,0,0,0,0]},{"header":{"parameterUnit":"m.s-1","parameterCategory":2,"la1":30.2991,"la2":30.254,"lo1":-89.0895,"lo2":-89.0444,"dy":0.0017,"dx":0.0017,"nx":28,"ny":28,"refTime":"2024-04-11T09:00:00:Z","depth":"2","parameterNumber":3,"parameterNumberName":"V-component_of_CURRENTS"},"data":[0,0,0,0,0,0,0,0,0,0,0,0,0,0,0,0,0,0,0,0,0,0,0,0,0,0,0,0,0,0,0,0,0,0,0,0,0,0,0,0,0,0,0,0,0,0,0,0,0,0,0,0,0,0,0,0,0,0,-0.0009,-0.0011,0,-0.0133,-0.0135,-0.0136,-0.0191,-0.0191,-0.019,-0.019,-0.0307,-0.0311,-0.0314,0,0,0,0,0,0,0,0,0,0,0,0,0,0.0057,0.0056,-0.0009,-0.0011,-0.0012,-0.0133,-0.0135,-0.0136,-0.0191,-0.0191,-0.019,-0.019,-0.0306,-0.031,-0.0314,0,0,0,0,0,0,0,0,0,0,0,0,0,-0.0011,0.0056,-0.0009,-0.0053,-0.0058,-0.0132,-0.0135,-0.0137,-0.0191,-0.0191,-0.019,-0.019,-0.0305,-0.031,-0.0315,-0.0355,0,0,-0.0331,-0.0333,0,0,0,0,0,0,0,0,-0.0007,-0.0013,-0.0045,-0.005,-0.0056,-0.0145,-0.0155,-0.0209,-0.0191,-0.0142,-0.019,-0.0189,-0.0252,-0.0261,-0.0288,-0.0361,-0.0366,-0.0331,-0.0334,-0.0336,-0.0338,0,0,0,0,0,0,0,-0.0002,-0.0009,-0.006,-0.0047,-0.0053,-0.0109,-0.0117,-0.0166,-0.0199,-0.0146,-0.015,-0.0162,-0.0255,-0.0283,-0.0291,-0.0367,-0.0331,-0.0335,-0.0339,-0.0341,-0.046,-0.0461,0,0,0,0,0,0,0.0022,-0.0004,-0.0056,-0.0063,-0.0028,-0.0109,-0.0119,-0.0118,-0.0199,-0.021,-0.0162,-0.0164,-0.0274,-0.0285,-0.0295,-0.0318,-0.0336,-0.0341,-0.0344,-0.046,-0.046,-0.0461,0,0,0,0,0,0,0.0024,0.0019,-0.0051,-0.0036,-0.0049,-0.011,-0.0109,-0.012,-0.0143,-0.021,-0.0222,-0.0172,-0.0274,-0.0288,-0.0324,-0.0324,-0.0343,-0.0348,-0.046,-0.046,-0.046,-0.0383,0,0,0,0,0,0,0.0027,0.0021,0.002,-0.0034,-0.0049,-0.007,-0.011,-0.0123,-0.0151,-0.0154,-0.0223,-0.0234,-0.0275,-0.0316,-0.0329,-0.0331,-0.0352,-0.046,-0.046,-0.046,-0.0386,-0.0381,-0.0377,0,0,0,0,0,0.003,0.0035,0.0021,0.0014,-0.0044,-0.0069,-0.0081,-0.0126,-0.0151,-0.0148,-0.0199,-0.0232,-0.0327,-0.032,-0.0336,-0.0339,-0.046,-0.046,-0.046,-0.0388,-0.0382,-0.0377,0,0,0,0,0,0,0.0059,0.0028,0.0012,0.0007,-0.0018,-0.0077,-0.009,-0.0121,-0.0163,-0.0169,-0.0234,-0.0247,-0.028,-0.0322,-0.0312,-0.0375,-0.04,-0.0403,-0.0339,-0.0334,-0.033,-0.0366,-0.0356,0,0,0,0,0,0.0068,0.0068,0.003,0.0028,0.0017,-0.0037,-0.0059,-0.0082,-0.0125,-0.0143,-0.0197,-0.0253,-0.0297,-0.0321,-0.0367,-0.0402,-0.0432,-0.0416,-0.0411,-0.0407,-0.0447,-0.0446,-0.0445,-0.0462,-0.0462,-0.0461,0,0,0.0076,0.006,0.0058,0.0034,0.0005,0.0016,-0.0048,-0.0066,-0.0058,-0.015,-0.0169,-0.0238,-0.0302,-0.0337,-0.0356,-0.0369,-0.0415,-0.0407,-0.0403,-0.0447,-0.0446,-0.0445,-0.0443,-0.0462,-0.0462,-0.0462,0,0,0.0106,0.0085,0.0099,0.0085,0.0058,0.0045,0.0048,-0.0005,-0.003,-0.0066,-0.0124,-0.0203,-0.0265,-0.0323,-0.0356,-0.036,-0.0387,-0.0361,-0.0372,-0.0368,-0.0367,-0.0366,-0.0382,-0.0384,-0.0361,-0.0361,-0.036,0,0.0116,0.0139,0.0099,0.0111,0.0114,0.0072,0.0099,0.0073,0.0014,-0.0032,-0.0056,-0.0214,-0.0268,-0.0331,-0.0344,-0.0353,-0.0354,-0.0379,-0.036,-0.0361,-0.0361,-0.0378,-0.0381,-0.0357,-0.0357,-0.0358,-0.0358,0,0.0157,0.0179,0.0188,0.0208,0.0204,0.0222,0.0196,0.0186,0.014,0.0061,-0.0037,-0.0138,-0.0242,-0.0265,-0.0317,-0.0358,-0.0358,-0.0345,-0.0368,-0.0354,-0.0374,-0.0378,-0.0352,-0.0353,-0.0354,-0.0355,0,0,0.0176,0.0216,0.0217,0.0251,0.0261,0.0266,0.0294,0.0267,0.023,0.0134,0.0087,-0.0071,-0.0189,-0.0238,-0.0309,-0.0347,-0.0357,-0.0357,-0.0358,-0.0364,-0.0351,-0.0335,-0.0339,-0.0314,-0.0315,-0.0315,-0.0356,0,0.023,0.03,0.0296,0.0372,0.0416,0.0395,0.0425,0.0378,0.0283,0.0229,0.0084,-0.001,-0.0148,-0.0205,-0.0266,-0.0325,-0.0367,-0.0349,-0.0376,-0.0379,-0.0357,-0.0343,-0.0317,-0.0349,-0.036,-0.0361,-0.0361,0,0.0274,0.0323,0.0406,0.0477,0.0487,0.0513,0.0509,0.0508,0.0404,0.0317,0.0159,0.0055,-0.0061,-0.0129,-0.0287,-0.0257,-0.0323,-0.0376,-0.0377,-0.0406,-0.0371,-0.0371,-0.0356,-0.0368,-0.0368,-0.0367,-0.0367,0,0.0327,0.0402,0.0482,0.0498,0.056,0.0575,0.0594,0.0497,0.0476,0.0347,0.0317,0.0129,0.0094,-0.004,-0.0201,-0.0225,-0.0311,-0.0333,-0.0396,-0.0395,-0.0411,-0.041,-0.0424,-0.0424,-0.0424,-0.0424,-0.0424,0,0.0406,0.0467,0.0503,0.0541,0.0577,0.0612,0.0587,0.0546,0.0527,0.0521,0.0343,0.0339,0.0121,0.0046,-0.0126,-0.0274,-0.0253,-0.0421,-0.0406,-0.0381,-0.0377,-0.0432,-0.0433,-0.0425,-0.0425,-0.0425,-0.0424,0,0.0469,0.0502,0.0566,0.0616,0.0595,0.061,0.0605,0.063,0.0575,0.0604,0.0606,0.0517,0.0405,0.019,0.0014,-0.0151,-0.0302,-0.0348,-0.0321,-0.0304,-0.0417,-0.0414,-0.0452,-0.0452,-0.0451,-0.0451,-0.0451,0,0.053,0.0572,0.0564,0.0574,0.0584,0.0587,0.0627,0.0612,0.0673,0.072,0.0825,0.0733,0.0696,0.0409,0.0097,-0.0187,-0.0232,-0.0331,-0.0405,-0.044,-0.0421,-0.0418,-0.0414,-0.0393,-0.0392,-0.0392,-0.0391,0,0.0604,0.0574,0.0589,0.0619,0.064,0.0681,0.0759,0.0824,0.0911,0.0974,0.1116,0.1101,0.0827,0.0533,0.0137,-0.0051,-0.03,-0.0331,-0.0341,-0.0382,-0.0385,-0.0366,-0.0365,-0.0387,-0.0388,-0.0388,-0.0388,-0.0388,0.0597,0.0601,0.0613,0.0646,0.0703,0.0852,0.0907,0.1073,0.1204,0.1365,0.1351,0.132,0.0979,0.045,0.0118,-0.0249,-0.0253,-0.0391,-0.0393,-0.0394,-0.0373,-0.0374,-0.0372,-0.0372,-0.0373,-0.0373,-0.0373,0,0.0588,0.0611,0.0675,0.0726,0.0879,0.0886,0.1078,0.1197,0.1406,0.1502,0.1565,0.1259,0.0922,0.053,-0.0026,-0.0343,-0.0384,-0.0422,-0.0422,-0.0422,-0.0423,-0.0405,-0.0413,-0.0414,-0.0415,-0.0416,0,0,0.0576,0.0618,0.068,0.0884,0.0971,0.1155,0.1279,0.1446,0.1548,0.1625,0.158,0.1474,0.1017,0.0613,0.0183,-0.0126,-0.0197,-0.0172,-0.0104,-0.0053,-0.0051,-0.0367,-0.0334,0,0,0,0,0]}],[{"header":{"parameterUnit":"m.s-1","parameterCategory":2,"la1":30.2991,"la2":30.254,"lo1":-89.0895,"lo2":-89.0444,"dy":0.0017,"dx":0.0017,"nx":28,"ny":28,"refTime":"2024-04-11T09:00:00:Z","depth":"4","parameterNumber":2,"parameterNumberName":"U-component_of_CURRENTS"},"data":[0,0,0,0,0,0,0,0,0,0,0,0,0,0,0,0,0,0,0,0,0,0,0,0,0,0,0,0,0,0,0,0,0,0,0,0,0,0,0,0,0,0,0,0,0,0,0,0,0,0,0,0,0,0,0,0,0,0,0.1197,0.1198,0,0.1271,0.1272,0.1272,0.1354,0.1356,0.1357,0.1358,0.1473,0.1475,0.1477,0,0,0,0,0,0,0,0,0,0,0,0,0,0.1118,0.1119,0.1197,0.1198,0.1199,0.1271,0.1272,0.1273,0.1354,0.1356,0.1357,0.1359,0.1472,0.1475,0.1477,0,0,0,0,0,0,0,0,0,0,0,0,0,0.1167,0.1119,0.1197,0.1249,0.1255,0.1271,0.1272,0.1273,0.1354,0.1356,0.1358,0.136,0.1472,0.1474,0.1477,0.1456,0,0,0.1486,0.1487,0,0,0,0,0,0,0,0,0.1164,0.117,0.124,0.1246,0.1252,0.1306,0.1286,0.1336,0.1353,0.1315,0.1358,0.1361,0.142,0.1427,0.1435,0.1461,0.1466,0.1486,0.1487,0.1489,0.1489,0,0,0,0,0,0,0,0.1161,0.1167,0.1225,0.1241,0.1248,0.1266,0.1275,0.1296,0.1356,0.1319,0.1325,0.1334,0.1424,0.1432,0.1438,0.1468,0.1486,0.1488,0.149,0.1491,0.1624,0.1626,0,0,0,0,0,0,0.1152,0.1164,0.1223,0.1228,0.1213,0.1266,0.1276,0.1286,0.1355,0.1367,0.1332,0.1338,0.1426,0.1435,0.1443,0.1519,0.1489,0.1491,0.1493,0.1623,0.1625,0.1627,0,0,0,0,0,0,0.115,0.1156,0.122,0.1198,0.1208,0.1265,0.1276,0.1287,0.1336,0.1365,0.1379,0.1376,0.1428,0.1439,0.1503,0.152,0.1492,0.1495,0.162,0.1623,0.1626,0.1608,0,0,0,0,0,0,0.1147,0.1155,0.117,0.1197,0.1209,0.1251,0.1274,0.1287,0.1336,0.1345,0.1406,0.1416,0.1431,0.1499,0.1506,0.1524,0.1497,0.1618,0.1622,0.1625,0.1607,0.161,0.1613,0,0,0,0,0,0.1144,0.1151,0.117,0.1178,0.1224,0.1252,0.126,0.1306,0.1337,0.1358,0.141,0.1416,0.1527,0.1502,0.151,0.1529,0.1616,0.1621,0.1625,0.1605,0.1609,0.1613,0,0,0,0,0,0,0.1126,0.1161,0.1182,0.1202,0.1236,0.1267,0.129,0.1323,0.1379,0.1399,0.1434,0.1447,0.151,0.1529,0.1502,0.1583,0.1575,0.1581,0.1557,0.1562,0.1565,0.1557,0.15,0,0,0,0,0,0.1126,0.1144,0.118,0.1198,0.1216,0.126,0.1283,0.1316,0.1361,0.139,0.1431,0.1483,0.1525,0.1553,0.1589,0.1627,0.1661,0.1651,0.1654,0.1656,0.1659,0.1738,0.1748,0.1641,0.1641,0.1641,0,0,0.1125,0.1146,0.1158,0.1196,0.1226,0.1244,0.128,0.1322,0.1345,0.1391,0.1447,0.1496,0.154,0.1587,0.1617,0.161,0.1705,0.1662,0.1663,0.1665,0.1743,0.1754,0.1763,0.1644,0.1643,0.1643,0,0,0.1113,0.1151,0.1157,0.1183,0.123,0.1255,0.1276,0.1328,0.1365,0.1417,0.1462,0.1527,0.1585,0.162,0.1643,0.169,0.1721,0.1712,0.1718,0.1794,0.1803,0.1811,0.1859,0.1872,0.1711,0.1711,0.1711,0,0.1112,0.1122,0.1165,0.1173,0.1196,0.1262,0.1275,0.1311,0.1381,0.1424,0.1439,0.1573,0.1594,0.1669,0.1677,0.1693,0.1742,0.169,0.1796,0.1805,0.1814,0.1861,0.1875,0.1711,0.1711,0.1711,0.1711,0,0.108,0.1113,0.1121,0.1153,0.1184,0.121,0.1261,0.1319,0.1377,0.142,0.1526,0.1577,0.1667,0.1676,0.1679,0.1762,0.1778,0.1789,0.1776,0.1823,0.187,0.1885,0.1711,0.1711,0.1711,0.1711,0,0,0.1014,0.1086,0.1087,0.1129,0.1179,0.1212,0.1259,0.133,0.1402,0.1469,0.1562,0.1617,0.1684,0.1717,0.1756,0.18,0.1875,0.1815,0.1819,0.1846,0.2042,0.1927,0.1933,0.1916,0.1919,0.1921,0.2046,0,0.0981,0.1002,0.1039,0.109,0.1122,0.1204,0.1245,0.1326,0.1414,0.152,0.1599,0.1701,0.1689,0.1762,0.1802,0.1873,0.1918,0.184,0.2009,0.2013,0.1891,0.1947,0.193,0.2058,0.2061,0.2064,0.2065,0,0.0912,0.0958,0.0982,0.1104,0.1124,0.1164,0.1296,0.1349,0.1493,0.1568,0.1691,0.1774,0.1871,0.1856,0.1992,0.1954,0.1994,0.2028,0.2034,0.1943,0.1926,0.2008,0.2093,0.2091,0.2089,0.2087,0.2085,0,0.0834,0.0919,0.0949,0.0977,0.1102,0.1161,0.1243,0.1375,0.1451,0.1634,0.1726,0.1859,0.1961,0.2033,0.2099,0.2071,0.2238,0.2213,0.2147,0.214,0.2211,0.2201,0.2306,0.2306,0.2306,0.2305,0.2305,0,0.0764,0.0805,0.0936,0.0959,0.104,0.1145,0.1253,0.136,0.1519,0.1629,0.1766,0.1881,0.2016,0.2126,0.2152,0.2197,0.2294,0.2156,0.217,0.22,0.2188,0.2221,0.2209,0.231,0.2309,0.2308,0.2307,0,0.0666,0.0732,0.0804,0.0953,0.1003,0.1072,0.1249,0.1344,0.1502,0.1662,0.173,0.193,0.2081,0.2187,0.2322,0.2268,0.2319,0.231,0.2339,0.2351,0.2152,0.2139,0.2244,0.2241,0.2239,0.2237,0.2235,0,0.0614,0.0634,0.078,0.0834,0.091,0.1035,0.1121,0.1306,0.1415,0.168,0.1752,0.1967,0.2087,0.2185,0.2284,0.2352,0.2324,0.2325,0.2213,0.2146,0.215,0.214,0.213,0.2231,0.223,0.223,0.2229,0,0.0537,0.0582,0.064,0.0749,0.0853,0.0967,0.1124,0.1187,0.142,0.1572,0.1754,0.1868,0.2035,0.2133,0.2212,0.2245,0.2305,0.2298,0.2302,0.2197,0.2132,0.2136,0.2129,0.2221,0.2222,0.2223,0.2223,0,0.0474,0.048,0.0554,0.0661,0.0794,0.0907,0.0984,0.1149,0.1271,0.157,0.1625,0.1852,0.2026,0.2082,0.2149,0.2182,0.2142,0.2055,0.2071,0.2081,0.1969,0.1858,0.1885,0,0,0,0,0,0.0409,0.0406,0.0476,0.0596,0.0747,0.0831,0.1002,0.109,0.131,0.1404,0.1516,0.1671,0.1817,0.1919,0.1923,0.2063,0.213,0.2055,0.2032,0.2174,0.2183,0.2065,0,0,0,0,0,0,0.035,0.0381,0.0423,0.0556,0.0645,0.0794,0.0904,0.1036,0.1097,0.1316,0.1402,0.1566,0.1721,0.1807,0.1892,0.1923,0.1873,0.2186,0.2182,0.2168,0.2177,0.2185,0.2066,0,0,0,0,0]},{"header":{"parameterUnit":"m.s-1","parameterCategory":2,"la1":30.2991,"la2":30.254,"lo1":-89.0895,"lo2":-89.0444,"dy":0.0017,"dx":0.0017,"nx":28,"ny":28,"refTime":"2024-04-11T09:00:00:Z","depth":"4","parameterNumber":3,"parameterNumberName":"V-component_of_CURRENTS"},"data":[0,0,0,0,0,0,0,0,0,0,0,0,0,0,0,0,0,0,0,0,0,0,0,0,0,0,0,0,0,0,0,0,0,0,0,0,0,0,0,0,0,0,0,0,0,0,0,0,0,0,0,0,0,0,0,0,0,0,0.0246,0.0246,0,0.0197,0.0196,0.0195,0.0178,0.0178,0.0178,0.0179,0.0122,0.012,0.0118,0,0,0,0,0,0,0,0,0,0,0,0,0,0.0266,0.0266,0.0247,0.0246,0.0245,0.0197,0.0196,0.0195,0.0178,0.0178,0.0179,0.0179,0.0122,0.012,0.0118,0,0,0,0,0,0,0,0,0,0,0,0,0,0.024,0.0266,0.0247,0.0232,0.023,0.0197,0.0196,0.0195,0.0178,0.0178,0.0179,0.0179,0.0123,0.012,0.0118,0.0093,0,0,0.0109,0.0108,0,0,0,0,0,0,0,0,0.0242,0.0239,0.0234,0.0233,0.0231,0.0195,0.0182,0.0161,0.0178,0.0196,0.0179,0.0179,0.0146,0.0141,0.013,0.009,0.0088,0.0109,0.0108,0.0106,0.0106,0,0,0,0,0,0,0,0.0244,0.0241,0.0226,0.0234,0.0231,0.0207,0.0204,0.0178,0.0168,0.0195,0.0194,0.019,0.0145,0.0132,0.0128,0.0087,0.0109,0.0107,0.0105,0.0104,0.0069,0.007,0,0,0,0,0,0,0.0254,0.0243,0.0227,0.0224,0.0238,0.0206,0.0203,0.0205,0.0169,0.0164,0.0189,0.0189,0.0137,0.0131,0.0126,0.0162,0.0106,0.0104,0.0102,0.0068,0.0069,0.007,0,0,0,0,0,0,0.0255,0.0254,0.0229,0.0233,0.0228,0.0206,0.0208,0.0204,0.0198,0.0165,0.016,0.0188,0.0137,0.013,0.0121,0.0157,0.0103,0.01,0.0067,0.0068,0.0069,0.0191,0,0,0,0,0,0,0.0256,0.0254,0.0255,0.0234,0.0229,0.0228,0.0208,0.0203,0.0194,0.0194,0.0162,0.0157,0.0136,0.0125,0.0118,0.0152,0.0098,0.0067,0.0068,0.0069,0.0186,0.0196,0.0204,0,0,0,0,0,0.0257,0.0264,0.0256,0.0254,0.0232,0.0229,0.0224,0.0208,0.0194,0.0201,0.0181,0.0158,0.0128,0.0123,0.0115,0.015,0.0066,0.0068,0.0069,0.0182,0.0194,0.0204,0,0,0,0,0,0,0.0268,0.0263,0.0253,0.0257,0.025,0.0227,0.023,0.0212,0.0198,0.0197,0.0163,0.0157,0.0163,0.013,0.0126,0.014,0.0094,0.0094,0.0182,0.0193,0.0202,0.0232,0.0096,0,0,0,0,0,0.0272,0.0281,0.0267,0.0271,0.0273,0.0249,0.0243,0.0232,0.0218,0.0212,0.0195,0.0172,0.016,0.0157,0.0136,0.014,0.0087,0.0156,0.0165,0.0173,0.019,0.0123,0.0128,0.0075,0.0075,0.0075,0,0,0.0276,0.0274,0.0278,0.0274,0.0268,0.0294,0.0248,0.0249,0.0275,0.0207,0.0237,0.02,0.0165,0.0179,0.0179,0.0161,0.016,0.0175,0.0183,0.0195,0.0125,0.0131,0.0135,0.0076,0.0075,0.0075,0,0,0.0312,0.0292,0.0325,0.0329,0.0329,0.0318,0.0323,0.0311,0.0313,0.0326,0.0287,0.0274,0.0257,0.0246,0.0236,0.0277,0.0206,0.0265,0.0345,0.0281,0.0285,0.0288,0.023,0.0227,0.0276,0.0276,0.0277,0,0.0321,0.0357,0.0331,0.0371,0.0384,0.034,0.0383,0.038,0.0368,0.0373,0.0356,0.0325,0.0298,0.0309,0.0334,0.0302,0.0247,0.0312,0.0294,0.0296,0.0296,0.0236,0.0231,0.0282,0.0282,0.0281,0.0281,0,0.0394,0.042,0.044,0.0482,0.0489,0.0513,0.0511,0.0518,0.0508,0.0499,0.0503,0.0458,0.0438,0.0431,0.0404,0.0403,0.0354,0.0309,0.0272,0.031,0.0243,0.0236,0.0291,0.0289,0.0287,0.0286,0,0,0.0435,0.0485,0.0498,0.0527,0.0549,0.0561,0.0607,0.0629,0.065,0.0636,0.0658,0.0644,0.0595,0.0578,0.0526,0.0487,0.0453,0.0416,0.0409,0.037,0.0307,0.0257,0.0243,0.0395,0.0394,0.0394,0.026,0,0.0508,0.06,0.0607,0.0685,0.0724,0.0706,0.0753,0.0759,0.075,0.0757,0.0709,0.0704,0.0657,0.0639,0.0597,0.0475,0.0438,0.0494,0.0267,0.0261,0.022,0.0235,0.0392,0.0254,0.0252,0.0251,0.025,0,0.059,0.0637,0.0732,0.0778,0.0797,0.0842,0.0879,0.0911,0.0905,0.0893,0.087,0.081,0.0764,0.0707,0.0547,0.0577,0.0467,0.0377,0.0368,0.0277,0.0197,0.0203,0.0235,0.0236,0.0237,0.0238,0.0239,0,0.063,0.072,0.0795,0.0817,0.087,0.0914,0.0946,0.0961,0.0983,0.0972,0.096,0.0889,0.0829,0.07,0.0519,0.0524,0.0321,0.0291,0.0149,0.0143,0.0176,0.0174,0.0189,0.0189,0.0189,0.019,0.019,0,0.0694,0.0752,0.0826,0.0864,0.0948,0.0972,0.1047,0.1059,0.1076,0.1084,0.1029,0.099,0.0819,0.0678,0.0532,0.031,0.032,0.017,0.0107,0.0229,0.0235,0.017,0.017,0.0185,0.0186,0.0187,0.0188,0,0.0713,0.077,0.0848,0.0933,0.0967,0.1027,0.1111,0.1147,0.1159,0.116,0.1154,0.1043,0.0851,0.067,0.0429,0.0307,0.0116,0.0038,0.0188,0.0134,-0.0016,-0.0008,-0.0123,-0.0126,-0.0129,-0.0131,-0.0132,0,0.0729,0.0774,0.0887,0.094,0.0987,0.108,0.1137,0.1188,0.1206,0.1175,0.1156,0.1002,0.0897,0.0531,0.0346,0.0063,0.0023,-0.0067,-0.0026,0.0003,-0.0047,-0.0036,-0.0025,-0.0136,-0.0137,-0.0138,-0.0138,0,0.0733,0.078,0.084,0.0953,0.1037,0.1111,0.1188,0.1202,0.1226,0.1245,0.1129,0.0964,0.0739,0.0492,0.0265,0.0069,0.0,-0.0093,-0.0088,-0.005,-0.0015,-0.0059,-0.0046,-0.0147,-0.0145,-0.0145,-0.0144,0,0.0727,0.0766,0.085,0.0953,0.1044,0.1095,0.1148,0.1156,0.1178,0.1146,0.1099,0.0902,0.0799,0.0492,0.0286,0.0083,0.004,-0.0009,-0.001,-0.0003,0.0075,0.014,0.0008,0,0,0,0,0,0.0707,0.0755,0.0841,0.0932,0.1017,0.1071,0.1149,0.1185,0.1212,0.1127,0.1115,0.0913,0.0604,0.0483,0.0266,0.0232,-0.0,-0.0028,-0.0059,-0.0193,-0.0183,-0.0117,0,0,0,0,0,0,0.0694,0.0764,0.0823,0.0895,0.0945,0.1021,0.1071,0.1093,0.1045,0.1053,0.089,0.0853,0.0553,0.0716,0.0256,0.02,0.015,-0.0153,-0.0158,-0.0198,-0.019,-0.0182,-0.011,0,0,0,0,0]}]]